Regional Weather Roundup
Issued by NWS Newport/Morehead, NC

Current Version | Previous Version | Text Only | Print | Product List | Glossary Off
Versions: 1 2 3 4 5 6 7 8 9 10 11 12 13 14 15 16 17 18 19 20 21 22 23 24 25 26 27 28 29 30 31 32 33 34 35 36 37 38 39 40 41 42 43 44 45 46 47 48 49 50
000 ASUS42 KMHX 012225 RWRMHX WEATHER ROUNDUP FOR EASTERN NORTH CAROLINA NATIONAL WEATHER SERVICE NEWPORT/MOREHEAD CITY NC 600 PM EDT SAT AUG 01 2015 NOTE: "FAIR" INDICATES FEW OR NO CLOUDS BELOW 12,000 FEET WITH NO SIGNIFICANT WEATHER AND/OR OBSTRUCTIONS TO VISIBILITY NCZ015>017-031-032-045>047-102-103-012300- NORTH COAST CITY SKY/WX TMP DP RH WIND PRES REMARKS EDENTON N/A 88 72 59 S8 29.85S ELIZABETH CITY SUNNY 87 67 51 SE8 29.86S KITTY HAWK CLEAR 90 70 51 S7 29.86S MANTEO SUNNY 84 74 73 S10 29.88R $$ NCZ045>047-081-094-103-104-012300- CENTRAL COAST CITY SKY/WX TMP DP RH WIND PRES REMARKS FRISCO PTSUNNY 84 76 76 SW7 29.89S SWANQUARTER N/A 88 N/A N/A S7 29.82S $$ NCZ095-097-098-100-101-012300- SOUTHERN COAST CITY SKY/WX TMP DP RH WIND PRES REMARKS BEAUFORT MOSUNNY 83 78 85 SW14 29.88S CEDAR ISLAND N/A 86 N/A N/A S8G15 29.91S JACKSONVILLE MOSUNNY 86 75 69 S8 29.86S PINEY ISLAND PTCLDY N/A N/A N/A S10 29.87F WILMINGTON CLOUDY 80 71 74 NE8 29.88R $$ NCZ011>013-027>030-043-044-078>080-089-090>093-098-012300- COASTAL PLAIN CITY SKY/WX TMP DP RH WIND PRES REMARKS AHOSKIE SUNNY 89 58 36 CALM 29.85F CLINTON SUNNY 94 64 36 CALM 29.87R ELIZABETHTOWN SUNNY 93 58 31 CALM 29.86F GOLDSBORO MOSUNNY 93 68 43 CALM 29.84S GREENVILLE SUNNY 90 63 40 W6 29.88S HAVELOCK MOSUNNY 85 76 74 S13 29.88S KENANSVILLE SUNNY 91 59 34 CALM 29.87S KINSTON SUNNY 91 55 29 CALM 29.87S NEW BERN MOSUNNY 92 62 36 W7 29.87S RICHLANDS SUNNY 91 57 31 CALM 29.86F ROCKY MOUNT MOSUNNY 93 56 28 MISG 29.86F WASHINGTON SUNNY 90 64 41 SW7 29.86R WHITEVILLE MOSUNNY 90 74 60 S10 29.87S $$ AMZ130-135-150-152-154-156-158-170-250-252-270-ANZ085-086-088-633-658-670-012300- MARINE OBSERVATIONS STATION/POSITION TIME TEMP WIND PRES WAVE SWELL AIR SEA DIR/SP/G HT/PER HT/PER (UTC) (F) (DEG/KT/KT) (MB) (FT/S) (FT/S) CHESAPEAKE LIGHT 2200 81 160/ 16/ 17 1011.6 64 E VA BEACH 2150 80 82 180/ 14/ 16 1011.4 4/ 7 3/ 7 DUCK 2200 82 80 130/ 12/ 13 1010.4 2 E DUCK 2111 80 N/A 3/12 2/12 OREGON INLET 2200 82 84 180/ 11/ 12 1011.7 13E OREGON INLT 2200 82 N/A 3/ 7 HATTERAS CG 2200 83 81 220/ 8/ 12 1011.6 DIAMOND BUOY 2150 82 85 200/ 6/ 12 1012.2 3/ 8 3/ 8 CAPE LOOKOUT 2200 82 220/ 7/ 10 1011.6 BEAUFORT LAB 2200 83 84 220/ 9/ 13 1011.1 30 SE NEW RVR IN NOT AVBL 27 SE WRIGHTSVLE 2200 78 83 230/ 12/ 14 N/A 5 SE WRIGHTSVLE 2108 82 83 220/ 16/ 23 1011.9 225 S CAPE HAT 2150 83 81 210/ 14/ 17 1015.0 6/ 6 3/ 7 41 SE CHARLESTON 2150 80 84 130/ 8/ 10 1012.1 4/ 6 3/ 6 $$

USA.gov is the U.S. government's official web portal to all federal, state and local government web resources and services.